Location: Castellar de la Frontera
(36.3200°N, 5.4500°W)
Time: 21:38:01
(UTC+02:00)

ISS - Pass Details

Date: 19 July 2018
Orbit: 402 x 408 km, 51.6° (Epoch: 17 July)

Event Time Altitude Azimuth Distance (km) Brightness Sun altitude
Rises 22:55:58 0° 220° (SW) 2,301 0.0 -14.1°
Reaches altitude 10° 22:58:02 10° 217° (SW) 1,446 -1.1 -14.4°
Maximum altitude 23:01:14 60° 136° (SE) 463 -3.9 -14.9°
Drops below altitude 10° 23:04:28 10° 55° (NE) 1,458 -1.2 -15.4°
Sets 23:06:34 0° 52° (NE) 2,322 -0.1 -15.7°
